When you browse on this site, cookies collect data to enhance your experience and personalize the content and advertising you see.
Visit our Privacy Policy to learn more. By continuing to use the site, you agree to this use of cookies and data.
  • In Romania
  • List of Countries
  • For 7 days
  • Water Temperature
  • Satellite Maps
  • Weather Map
  • Weather Widgets
  • user-avatar
    Login

    Hourly Weather Nikaniha

    Today, 19 February, Tuesday

    Time Temperature Precipitation Wind Pressure Humidity
    00:00 -9°C° 0 mm 3 mps 750 mmHg 82%
    01:00 -10°C° 0 mm 4 mps 750 mmHg 79%
    02:00 -10°C° 0 mm 5 mps 749 mmHg 76%
    03:00 -10°C° 0 mm 5 mps 748 mmHg 76%
    04:00 -10°C° 0 mm 5 mps 747 mmHg 76%
    05:00 -8°C° 0 mm 5 mps 746 mmHg 76%
    06:00 -8°C° 0 mm 5 mps 745 mmHg 77%
    07:00 -8°C° 0 mm 4 mps 745 mmHg 78%
    08:00 -7°C° 0 mm 4 mps 744 mmHg 78%
    09:00 -5°C° 0 mm 4 mps 744 mmHg 79%
    10:00 -5°C° 0 mm 5 mps 743 mmHg 79%
    11:00 -2°C° 0 mm 5 mps 743 mmHg 79%
    12:00 -2°C° 0 mm 5 mps 743 mmHg 81%
    13:00 -1°C° 0 mm 4 mps 743 mmHg 83%
    14:00 -1°C° 0 mm 4 mps 742 mmHg 85%
    15:00 -1°C° 0 mm 4 mps 742 mmHg 86%
    16:00 -1°C° 0 mm 4 mps 742 mmHg 88%
    17:00 -2°C° 0 mm 4 mps 741 mmHg 89%
    18:00 -1°C° 0 mm 3 mps 741 mmHg 90%
    19:00 -1°C° 0 mm 3 mps 740 mmHg 90%
    20:00 -2°C° 0 mm 3 mps 740 mmHg 91%
    21:00 -3°C° 0 mm 4 mps 739 mmHg 91%
    22:00 -3°C° 0 mm 4 mps 738 mmHg 90%
    23:00 -3°C° 0 mm 4 mps 737 mmHg 90%

    Tomorrow, 20 February, Wednesday

    Time Temperature Precipitation Wind Pressure Humidity
    00:00 -2°C° 0.1 mm 4 mps 737 mmHg 90%
    01:00 -2°C° 0.1 mm 4 mps 736 mmHg 90%
    02:00 -2°C° 0.1 mm 4 mps 735 mmHg 90%
    03:00 -2°C° 0.1 mm 4 mps 735 mmHg 89%
    04:00 -1°C° 0.1 mm 4 mps 734 mmHg 89%
    05:00 -1°C° 0.1 mm 4 mps 733 mmHg 88%
    06:00 -1°C° 0.2 mm 4 mps 733 mmHg 89%
    07:00 -1°C° 0.2 mm 4 mps 733 mmHg 90%
    08:00 0°C° 0.2 mm 4 mps 733 mmHg 91%
    09:00 0°C° 0 mm 4 mps 733 mmHg 91%
    10:00 0°C° 0 mm 4 mps 733 mmHg 90%
    11:00 0°C° 0 mm 4 mps 733 mmHg 90%
    12:00 0°C° 0.1 mm 4 mps 733 mmHg 90%
    13:00 0°C° 0.1 mm 4 mps 733 mmHg 90%
    14:00 0°C° 0.1 mm 4 mps 733 mmHg 90%
    15:00 0°C° 0 mm 4 mps 733 mmHg 90%
    16:00 0°C° 0 mm 4 mps 733 mmHg 91%
    17:00 0°C° 0 mm 3 mps 732 mmHg 91%
    18:00 0°C° 0.1 mm 3 mps 732 mmHg 91%
    19:00 0°C° 0.1 mm 3 mps 732 mmHg 92%
    20:00 0°C° 0.1 mm 3 mps 732 mmHg 92%
    21:00 0°C° 0 mm 3 mps 732 mmHg 93%
    22:00 0°C° 0 mm 3 mps 732 mmHg 93%
    23:00 +1°C° 0 mm 2 mps 732 mmHg 94%

    Day after tomorrow, 21 February, Thursday

    Time Temperature Precipitation Wind Pressure Humidity
    00:00 -1°C° 0.1 mm 2 mps 732 mmHg 95%
    01:00 -1°C° 0.1 mm 2 mps 732 mmHg 95%
    02:00 -1°C° 0.1 mm 2 mps 732 mmHg 96%
    03:00 -1°C° 0.1 mm 2 mps 732 mmHg 96%
    04:00 -1°C° 0.1 mm 2 mps 732 mmHg 96%
    05:00 -1°C° 0.1 mm 2 mps 732 mmHg 95%
    06:00 -1°C° 0.2 mm 2 mps 733 mmHg 95%
    07:00 -1°C° 0.2 mm 2 mps 733 mmHg 94%
    08:00 -1°C° 0.2 mm 3 mps 733 mmHg 94%
    09:00 -1°C° 0.6 mm 3 mps 734 mmHg 93%
    10:00 -2°C° 0.6 mm 4 mps 735 mmHg 93%
    11:00 -4°C° 0.6 mm 5 mps 736 mmHg 92%
    12:00 -5°C° 0.4 mm 5 mps 737 mmHg 90%
    13:00 -8°C° 0.4 mm 6 mps 738 mmHg 88%
    14:00 -9°C° 0.4 mm 6 mps 739 mmHg 86%
    15:00 -10°C° 0.2 mm 6 mps 740 mmHg 84%
    16:00 -10°C° 0.2 mm 6 mps 741 mmHg 83%
    17:00 -11°C° 0.2 mm 6 mps 742 mmHg 81%
    18:00 -11°C° 0.1 mm 6 mps 743 mmHg 79%
    19:00 -12°C° 0.1 mm 6 mps 744 mmHg 77%
    20:00 -12°C° 0.1 mm 6 mps 746 mmHg 75%
    21:00 -14°C° 0 mm 6 mps 746 mmHg 75%
    22:00 -15°C° 0 mm 6 mps 747 mmHg 75%
    23:00 -16°C° 0 mm 6 mps 748 mmHg 75%

    22 February, Friday

    Time Temperature Precipitation Wind Pressure Humidity
    00:00 -16°C° 0 mm 6 mps 748 mmHg 76%
    01:00 -16°C° 0 mm 6 mps 749 mmHg 76%
    02:00 -16°C° 0 mm 6 mps 750 mmHg 77%
    03:00 -16°C° 0 mm 6 mps 750 mmHg 78%
    04:00 -16°C° 0 mm 6 mps 751 mmHg 78%
    05:00 -16°C° 0 mm 6 mps 752 mmHg 78%
    06:00 -16°C° 0 mm 6 mps 752 mmHg 79%
    07:00 -16°C° 0 mm 6 mps 753 mmHg 80%
    08:00 -16°C° 0 mm 6 mps 753 mmHg 80%
    09:00 -15°C° 0 mm 6 mps 754 mmHg 77%
    10:00 -14°C° 0 mm 6 mps 754 mmHg 74%
    11:00 -14°C° 0 mm 6 mps 754 mmHg 72%
    12:00 -12°C° 0 mm 6 mps 754 mmHg 71%
    13:00 -12°C° 0 mm 6 mps 754 mmHg 71%
    14:00 -12°C° 0 mm 6 mps 755 mmHg 71%
    15:00 -14°C° 0 mm 6 mps 755 mmHg 72%
    16:00 -14°C° 0 mm 6 mps 756 mmHg 74%
    17:00 -15°C° 0 mm 6 mps 756 mmHg 75%
    18:00 -15°C° 0 mm 6 mps 757 mmHg 76%
    19:00 -15°C° 0 mm 6 mps 757 mmHg 77%
    20:00 -14°C° 0 mm 5 mps 758 mmHg 78%
    21:00 -14°C° 0 mm 5 mps 758 mmHg 80%
    22:00 -14°C° 0 mm 5 mps 759 mmHg 81%
    23:00 -15°C° 0 mm 5 mps 759 mmHg 82%

    23 February, Saturday

    Time Temperature Precipitation Wind Pressure Humidity
    00:00 -15°C° 0 mm 4 mps 759 mmHg 84%
    01:00 -15°C° 0 mm 4 mps 759 mmHg 86%
    02:00 -15°C° 0 mm 3 mps 760 mmHg 88%
    03:00 -15°C° 0 mm 3 mps 760 mmHg 89%
    04:00 -16°C° 0 mm 3 mps 760 mmHg 91%
    05:00 -17°C° 0 mm 3 mps 760 mmHg 93%
    06:00 -16°C° 0 mm 3 mps 760 mmHg 92%
    07:00 -15°C° 0 mm 2 mps 760 mmHg 92%
    08:00 -15°C° 0 mm 2 mps 760 mmHg 92%
    09:00 -14°C° 0 mm 2 mps 760 mmHg 89%
    10:00 -13°C° 0 mm 2 mps 760 mmHg 87%
    11:00 -9°C° 0 mm 1 mps 760 mmHg 85%
    12:00 -9°C° 0 mm 1 mps 760 mmHg 83%
    13:00 -8°C° 0 mm 1 mps 760 mmHg 82%
    14:00 -7°C° 0 mm 1 mps 760 mmHg 81%
    15:00 -8°C° 0 mm 1 mps 760 mmHg 85%
    16:00 -9°C° 0 mm 1 mps 760 mmHg 88%
    17:00 -10°C° 0 mm 1 mps 760 mmHg 92%
    18:00 -10°C° 0 mm 1 mps 761 mmHg 92%
    19:00 -10°C° 0 mm 1 mps 761 mmHg 91%
    20:00 -11°C° 0 mm 0 mps 762 mmHg 91%
    21:00 -11°C° 0 mm 1 mps 762 mmHg 90%
    22:00 -11°C° 0 mm 1 mps 762 mmHg 89%
    23:00 -11°C° 0 mm 1 mps 762 mmHg 88%

    24 February, Sunday

    Time Temperature Precipitation Wind Pressure Humidity
    00:00 -11°C° 0 mm 1 mps 762 mmHg 88%
    01:00 -12°C° 0 mm 1 mps 762 mmHg 87%
    02:00 -12°C° 0 mm 1 mps 762 mmHg 87%
    03:00 -12°C° 0 mm 1 mps 762 mmHg 86%
    04:00 -14°C° 0 mm 2 mps 762 mmHg 86%
    05:00 -14°C° 0 mm 2 mps 762 mmHg 85%
    06:00 -13°C° 0 mm 2 mps 762 mmHg 83%
    07:00 -13°C° 0 mm 2 mps 762 mmHg 80%
    08:00 -13°C° 0 mm 3 mps 762 mmHg 77%
    09:00 -12°C° 0 mm 3 mps 762 mmHg 77%
    10:00 -9°C° 0 mm 3 mps 761 mmHg 77%
    11:00 -8°C° 0 mm 3 mps 761 mmHg 77%
    12:00 -8°C° 0 mm 4 mps 760 mmHg 78%
    13:00 -7°C° 0 mm 4 mps 760 mmHg 79%
    14:00 -7°C° 0 mm 4 mps 759 mmHg 80%
    15:00 -7°C° 0 mm 4 mps 758 mmHg 81%
    16:00 -7°C° 0 mm 4 mps 757 mmHg 82%
    17:00 -7°C° 0 mm 4 mps 757 mmHg 83%
    18:00 -7°C° 0 mm 4 mps 756 mmHg 83%
    19:00 -7°C° 0 mm 5 mps 755 mmHg 83%
    20:00 -7°C° 0 mm 5 mps 754 mmHg 83%
    21:00 -7°C° 0.1 mm 5 mps 753 mmHg 84%
    22:00 -7°C° 0.1 mm 5 mps 752 mmHg 85%
    23:00 -7°C° 0.1 mm 5 mps 751 mmHg 87%
    Show more